[[{"header":{"parameterUnit":"m.s-1","parameterCategory":1,"la1":30.2991,"la2":30.254,"lo1":-89.0895,"lo2":-89.0444,"dy":0.0017,"dx":0.0017,"nx":28,"ny":28,"refTime":"2025-04-24T21:00:00:Z","depth":0,"parameterNumber":2,"parameterNumberName":"U-component_of_WINDS"},"data":[0,0,0,0,0,0,0,0,0,0,0,0,0,0,0,0,0,0,0,0,0,0,0,0,0,0,0,0,0,0,0,0,0,0,0,0,0,0,0,0,0,0,0,0,0,0,0,0,0,0,0,0,0,0,0,0,0,0,-0.956,-0.956,0,-0.9571,-0.9571,-0.9571,-0.9571,-0.957,-0.957,-0.957,-0.9582,-0.9583,-0.9583,0,0,0,0,0,0,0,0,0,0,0,0,0,-0.9538,-0.9538,-0.956,-0.956,-0.956,-0.9571,-0.9571,-0.9571,-0.9571,-0.957,-0.957,-0.957,-0.9582,-0.9583,-0.9583,0,0,0,0,0,0,0,0,0,0,0,0,0,-0.9548,-0.9538,-0.956,-0.9561,-0.9561,-0.9571,-0.9571,-0.9571,-0.9571,-0.957,-0.957,-0.957,-0.9582,-0.9583,-0.9583,-0.9593,0,0,-0.9586,-0.9586,0,0,0,0,0,0,0,0,-0.9548,-0.9549,-0.9561,-0.9561,-0.9561,-0.9569,-0.9568,-0.9579,-0.9571,-0.9567,-0.957,-0.957,-0.9578,-0.9579,-0.9582,-0.9594,-0.9594,-0.9586,-0.9586,-0.9586,-0.9587,0,0,0,0,0,0,0,-0.9547,-0.9548,-0.9564,-0.9561,-0.9561,-0.9561,-0.9562,-0.957,-0.9574,-0.9567,-0.9567,-0.9569,-0.9578,-0.9581,-0.9582,-0.9594,-0.9586,-0.9586,-0.9587,-0.9587,-0.9615,-0.9615,0,0,0,0,0,0,-0.9546,-0.9548,-0.9564,-0.9565,-0.9554,-0.9562,-0.9563,-0.9567,-0.9574,-0.9575,-0.9569,-0.9569,-0.958,-0.9581,-0.9583,-0.9594,-0.9586,-0.9587,-0.9588,-0.9615,-0.9615,-0.9615,0,0,0,0,0,0,-0.9545,-0.9547,-0.9563,-0.9556,-0.9558,-0.9562,-0.9567,-0.9567,-0.957,-0.9575,-0.9576,-0.9571,-0.958,-0.9582,-0.959,-0.9595,-0.9587,-0.9588,-0.9614,-0.9615,-0.9615,-0.9618,0,0,0,0,0,0,-0.9545,-0.9547,-0.955,-0.9556,-0.9559,-0.9571,-0.9567,-0.9568,-0.9571,-0.9571,-0.9577,-0.9578,-0.958,-0.9589,-0.9591,-0.9596,-0.9589,-0.9614,-0.9614,-0.9615,-0.9617,-0.9618,-0.9619,0,0,0,0,0,-0.9544,-0.9551,-0.9551,-0.9553,-0.9563,-0.9571,-0.9572,-0.9574,-0.9572,-0.9575,-0.9579,-0.9578,-0.9594,-0.959,-0.9592,-0.9597,-0.9614,-0.9614,-0.9615,-0.9617,-0.9618,-0.9619,0,0,0,0,0,0,-0.9545,-0.9552,-0.9551,-0.956,-0.9565,-0.9571,-0.9575,-0.9575,-0.9581,-0.958,-0.9583,-0.9584,-0.9593,-0.9596,-0.9592,-0.9607,-0.9604,-0.9605,-0.9605,-0.9606,-0.9607,-0.9605,-0.9589,0,0,0,0,0,-0.9547,-0.9553,-0.9558,-0.9565,-0.9568,-0.9571,-0.9575,-0.9576,-0.9581,-0.9583,-0.9587,-0.9592,-0.9598,-0.9602,-0.9608,-0.9618,-0.962,-0.9623,-0.9623,-0.9624,-0.9625,-0.9631,-0.9632,-0.9618,-0.9618,-0.9618,0,0,-0.955,-0.9554,-0.9557,-0.9566,-0.9569,-0.9575,-0.9573,-0.9579,-0.9584,-0.9584,-0.9592,-0.9595,-0.9601,-0.9611,-0.9615,-0.9614,-0.9629,-0.9625,-0.9626,-0.9626,-0.9632,-0.9633,-0.9634,-0.9618,-0.9618,-0.9618,0,0,-0.9558,-0.9562,-0.9568,-0.9572,-0.9578,-0.958,-0.9582,-0.9588,-0.959,-0.9598,-0.9599,-0.9605,-0.9615,-0.962,-0.9623,-0.9634,-0.9634,-0.9636,-0.964,-0.9646,-0.9647,-0.9648,-0.9652,-0.9653,-0.9637,-0.9637,-0.9637,0,-0.9561,-0.957,-0.9572,-0.9578,-0.9582,-0.9582,-0.9589,-0.9593,-0.9601,-0.9603,-0.9602,-0.9615,-0.962,-0.963,-0.9633,-0.9636,-0.9638,-0.9635,-0.9647,-0.9648,-0.9649,-0.9652,-0.9654,-0.9637,-0.9637,-0.9637,-0.9637,0,-0.9573,-0.9579,-0.9584,-0.9591,-0.9595,-0.9602,-0.9605,-0.961,-0.9611,-0.9613,-0.9623,-0.9628,-0.9635,-0.9638,-0.9639,-0.9648,-0.9647,-0.9646,-0.9643,-0.965,-0.9654,-0.9655,-0.9637,-0.9637,-0.9637,-0.9637,0,0,-0.9581,-0.959,-0.9592,-0.9595,-0.9602,-0.9607,-0.9614,-0.9621,-0.9625,-0.963,-0.9636,-0.9646,-0.9645,-0.9649,-0.9651,-0.9656,-0.9664,-0.9654,-0.9654,-0.9655,-0.9675,-0.9676,-0.9677,-0.9664,-0.9664,-0.9664,-0.9674,0,-0.959,-0.9602,-0.9604,-0.9615,-0.9621,-0.9622,-0.9628,-0.9633,-0.9636,-0.9642,-0.9645,-0.9652,-0.965,-0.9653,-0.9658,-0.9662,-0.9668,-0.9661,-0.967,-0.967,-0.9667,-0.9679,-0.9679,-0.9688,-0.9676,-0.9676,-0.9676,0,-0.9602,-0.9607,-0.9618,-0.9625,-0.9627,-0.9633,-0.9639,-0.9645,-0.9651,-0.9653,-0.9658,-0.9659,-0.9667,-0.9664,-0.9674,-0.967,-0.9674,-0.9676,-0.9677,-0.9677,-0.9673,-0.9679,-0.9691,-0.9693,-0.9678,-0.9678,-0.9678,0,-0.9607,-0.9617,-0.9625,-0.9628,-0.9636,-0.9639,-0.9643,-0.9649,-0.9653,-0.9659,-0.9662,-0.9669,-0.9673,-0.9678,-0.9682,-0.9679,-0.9692,-0.9689,-0.9694,-0.9694,-0.9696,-0.9696,-0.9709,-0.97,-0.97,-0.97,-0.97,0,-0.9616,-0.9623,-0.9627,-0.9632,-0.964,-0.9643,-0.9651,-0.9654,-0.9659,-0.9665,-0.9667,-0.9672,-0.9677,-0.9683,-0.9686,-0.9694,-0.9696,-0.9698,-0.9699,-0.9698,-0.9697,-0.97,-0.9699,-0.97,-0.97,-0.97,-0.97,0,-0.9623,-0.9626,-0.9635,-0.9641,-0.9643,-0.9649,-0.9654,-0.9659,-0.9663,-0.967,-0.9672,-0.9677,-0.9685,-0.9689,-0.9698,-0.97,-0.971,-0.971,-0.9708,-0.9708,-0.9713,-0.9712,-0.9727,-0.9729,-0.9719,-0.9719,-0.9719,0,-0.9628,-0.9633,-0.964,-0.9644,-0.9647,-0.9654,-0.9658,-0.9662,-0.9666,-0.9674,-0.9678,-0.9685,-0.9691,-0.9704,-0.9708,-0.9716,-0.9716,-0.9721,-0.9717,-0.9716,-0.9716,-0.9716,-0.9716,-0.9722,-0.9722,-0.9722,-0.9722,0,-0.9637,-0.9639,-0.9645,-0.9651,-0.9656,-0.9662,-0.9667,-0.9671,-0.9675,-0.968,-0.9688,-0.9692,-0.9702,-0.971,-0.9718,-0.9722,-0.9723,-0.9723,-0.9725,-0.9723,-0.9722,-0.9722,-0.9709,-0.9723,-0.9723,-0.9722,-0.9722,-0.9722,-0.9643,-0.9648,-0.9654,-0.966,-0.9665,-0.967,-0.9675,-0.9679,-0.9685,-0.9693,-0.9695,-0.9703,-0.971,-0.972,-0.9725,-0.9731,-0.973,-0.9732,-0.9733,-0.9733,-0.9733,-0.9721,-0.9733,-0.9733,-0.9733,-0.9733,-0.9733,0,-0.9652,-0.9656,-0.9662,-0.967,-0.9675,-0.9676,-0.9682,-0.9686,-0.9693,-0.9699,-0.9705,-0.9714,-0.9722,-0.9727,-0.9735,-0.9739,-0.974,-0.9741,-0.9741,-0.9742,-0.9734,-0.9732,-0.9741,-0.9741,-0.9741,-0.9741,-0.9741,-0.9741,-0.9658,-0.9666,-0.9668,-0.9678,-0.9682,-0.969,-0.9693,-0.9698,-0.9703,-0.9713,-0.9719,-0.9723,-0.9729,-0.9737,-0.9744,-0.9745,-0.9748,-0.9749,-0.9751,-0.9743,-0.9742,-0.9742,-0.9739,-0.975,-0.975,-0.9758,-0.9758,-0.9758]},{"header":{"parameterUnit":"m.s-1","parameterCategory":1,"la1":30.2991,"la2":30.254,"lo1":-89.0895,"lo2":-89.0444,"dy":0.0017,"dx":0.0017,"nx":28,"ny":28,"refTime":"2025-04-24T21:00:00:Z","depth":0,"parameterNumber":3,"parameterNumberName":"V-component_of_WINDS"},"data":[0,0,0,0,0,0,0,0,0,0,0,0,0,0,0,0,0,0,0,0,0,0,0,0,0,0,0,0,0,0,0,0,0,0,0,0,0,0,0,0,0,0,0,0,0,0,0,0,0,0,0,0,0,0,0,0,0,0,2.8754,2.8755,0,2.884,2.8841,2.8842,2.8834,2.8832,2.8831,2.883,2.8914,2.8917,2.8921,0,0,0,0,0,0,0,0,0,0,0,0,0,2.8579,2.8582,2.8754,2.8755,2.8756,2.884,2.8841,2.8842,2.8834,2.8832,2.8831,2.8829,2.8913,2.8917,2.8921,0,0,0,0,0,0,0,0,0,0,0,0,0,2.8659,2.8583,2.8754,2.8762,2.8764,2.884,2.8841,2.8843,2.8834,2.8832,2.883,2.8828,2.8911,2.8916,2.8922,2.8994,0,0,2.8938,2.894,0,0,0,0,0,0,0,0,2.8654,2.8665,2.876,2.8762,2.8764,2.8824,2.881,2.8893,2.8835,2.8807,2.883,2.8827,2.8885,2.8893,2.8913,2.8998,2.9001,2.8938,2.8941,2.8943,2.8945,0,0,0,0,0,0,0,2.8649,2.8661,2.8788,2.8761,2.8764,2.876,2.877,2.8826,2.8856,2.881,2.8809,2.882,2.8886,2.8908,2.8915,2.9003,2.8938,2.8943,2.8946,2.8948,2.9151,2.9153,0,0,0,0,0,0,2.8642,2.8657,2.8785,2.8791,2.8703,2.8765,2.8775,2.8807,2.8856,2.8861,2.8821,2.8819,2.89,2.8909,2.8918,2.9006,2.8943,2.8948,2.8951,2.9148,2.9151,2.9154,0,0,0,0,0,0,2.8638,2.8653,2.8782,2.8724,2.874,2.877,2.8806,2.881,2.8832,2.8865,2.887,2.8839,2.8899,2.8911,2.8975,2.9009,2.8951,2.8955,2.9146,2.9149,2.9152,2.9182,0,0,0,0,0,0,2.8633,2.8652,2.8681,2.8725,2.8743,2.8839,2.8808,2.8813,2.8841,2.8839,2.8882,2.8887,2.8898,2.8968,2.898,2.9015,2.896,2.9143,2.9147,2.9151,2.9178,2.9186,2.9193,0,0,0,0,0,2.8627,2.8685,2.8682,2.8698,2.878,2.8841,2.8852,2.8864,2.8844,2.8872,2.8894,2.8886,2.9003,2.8974,2.8989,2.9025,2.9141,2.9146,2.9151,2.9175,2.9185,2.9193,0,0,0,0,0,0,2.8643,2.8691,2.8688,2.8763,2.8798,2.884,2.8876,2.8874,2.8915,2.8911,2.8923,2.8933,2.8998,2.9018,2.8985,2.9097,2.9069,2.9077,2.9082,2.9092,2.9099,2.9093,2.8964,0,0,0,0,0,2.8655,2.8702,2.8741,2.8803,2.8821,2.8845,2.8872,2.8879,2.8916,2.893,2.8956,2.8991,2.9036,2.9065,2.9107,2.9181,2.919,2.9213,2.922,2.9226,2.9233,2.9273,2.9284,2.917,2.917,2.917,0,0,2.8681,2.8713,2.8741,2.8807,2.8835,2.8882,2.8858,2.8909,2.8944,2.8938,2.9001,2.9021,2.9061,2.913,2.9162,2.9149,2.9266,2.9233,2.9237,2.9241,2.928,2.929,2.93,2.9174,2.9173,2.9173,0,0,2.8752,2.8781,2.8836,2.8865,2.8908,2.8924,2.8937,2.898,2.8993,2.9057,2.9053,2.9094,2.9171,2.9199,2.9224,2.9306,2.93,2.9319,2.9357,2.9396,2.9405,2.9413,2.9442,2.9452,2.9326,2.9326,2.9326,0,2.8778,2.885,2.8864,2.8916,2.8944,2.8942,2.8997,2.9024,2.9079,2.9098,2.9082,2.9179,2.9205,2.9281,2.9301,2.9321,2.9336,2.9314,2.9403,2.9411,2.9419,2.9446,2.9457,2.9328,2.9328,2.9327,2.9327,0,2.888,2.893,2.8969,2.9024,2.9056,2.9109,2.913,2.9161,2.9165,2.9182,2.9247,2.9278,2.9328,2.9346,2.935,2.9423,2.9413,2.94,2.9372,2.9431,2.9458,2.9468,2.9331,2.933,2.933,2.9329,0,0,2.8964,2.9025,2.9039,2.9064,2.9112,2.915,2.9203,2.9252,2.9279,2.9316,2.936,2.9425,2.9414,2.9442,2.9448,2.9482,2.9545,2.9465,2.9466,2.9479,2.9628,2.9637,2.965,2.9542,2.9544,2.9545,2.9624,0,2.904,2.9135,2.9148,2.9231,2.9278,2.9276,2.9321,2.9355,2.9373,2.9413,2.9432,2.9478,2.9459,2.9476,2.951,2.953,2.9575,2.9525,2.9582,2.9584,2.9572,2.9663,2.9674,2.9747,2.9635,2.9636,2.9638,0,2.9141,2.9183,2.9272,2.9313,2.9333,2.9374,2.942,2.946,2.9497,2.9508,2.9539,2.9541,2.9594,2.9564,2.9637,2.9603,2.9626,2.964,2.9643,2.9649,2.9615,2.9672,2.977,2.9781,2.9654,2.9653,2.9652,0,2.9194,2.9272,2.9335,2.9356,2.9406,2.9435,2.9457,2.9493,2.9522,2.9562,2.958,2.9626,2.965,2.9685,2.9699,2.9675,2.9771,2.9741,2.978,2.978,2.9801,2.9799,2.9905,2.9816,2.9816,2.9815,2.9815,0,2.9278,2.9332,2.9359,2.9398,2.9458,2.9473,2.9531,2.9552,2.9584,2.9626,2.9626,2.9665,2.9681,2.9723,2.9734,2.9793,2.9803,2.9813,2.9815,2.9813,2.9812,2.9829,2.9824,2.9818,2.9818,2.9817,2.9817,0,2.9347,2.9368,2.9436,2.9478,2.949,2.9532,2.9568,2.9605,2.9622,2.9675,2.9688,2.9714,2.9763,2.978,2.9839,2.9846,2.9914,2.9912,2.9902,2.9903,2.9941,2.9937,3.0061,3.0078,2.9978,2.9979,2.9979,0,2.9399,2.9441,2.9487,2.9516,2.954,2.9586,2.9615,2.963,2.9661,2.9707,2.9739,2.9787,2.9827,2.9904,2.9928,2.9973,2.9972,3.0012,2.9978,2.9975,2.9973,2.997,2.9974,3.0018,3.0019,3.002,3.0021,0,2.9489,2.9498,2.9541,2.9589,2.9625,2.9662,2.9699,2.9722,2.9742,2.9776,2.9827,2.9858,2.9918,2.9966,3.0012,3.0033,3.0031,3.0031,3.0043,3.0041,3.0034,3.0039,2.992,3.0029,3.0028,3.0027,3.0027,3.0027,2.9552,2.9589,2.9628,2.9676,2.9706,2.974,2.9777,2.9799,2.9841,2.9893,2.9898,2.9953,2.9988,3.005,3.0073,3.0115,3.0104,3.012,3.0124,3.0128,3.0131,3.0027,3.0123,3.0123,3.0123,3.0123,3.0123,0,2.9643,2.9668,2.9712,2.9764,2.9802,2.9797,2.9837,2.9869,2.9917,2.9951,2.999,3.0048,3.0095,3.0122,3.0168,3.0197,3.0196,3.0208,3.0206,3.0211,3.0139,3.0124,3.0208,3.0208,3.0208,3.0208,3.0207,3.0207,2.9695,2.9757,2.977,2.9847,2.9871,2.9925,2.9948,2.9979,3.0007,3.0072,3.0111,3.0129,3.016,3.0209,3.0251,3.0258,3.0275,3.0288,3.0293,3.0225,3.0216,3.0208,3.0195,3.0291,3.0291,3.0363,3.0363,3.0364]}]]